DELTA 1 DEB, 10712

Orbit data source: Space-Track

DELTA 1 DEB, 10712 is space debris in SSO originally from a launch on Thu, 29 Jul 1976 UTC launched from the Air Force Western Test Range (AFWTR). Debris objects in space refer to the collection of defunct objects orbiting the Earth. Examples of debris include non-operational satellites, rocket bodies, and fragments generated from explosions, collisions, or faulty payload assembly.

Loading next visibility...
DELTA 1 DEB details
Identifier
10712, 1976-077AH
Orbit
SSO
Last TLE update1 day ago
Origin
Flag of USGSFC (US)
ManufacturerUnknown
MissionSpacecraft
Bus & MotorUnknown
MassUnknown
Launch date (UTC)
1976-07-29 (48 years ago)
Launch vehicleUnknown
Launch site
Air Force Western Test Range (AFWTR)
Object type
Payload
Rocket body
Debris
Shape & HBRUnknown
Radar Cross SectionSmall (<0.1 m²)

Expand to show TLE details & history

TLE from 1 day ago
0 DELTA 1 DEB
1 10712U 76077AH  25017.72656362  .00001450  00000-0  11197-1 0  9990
2 10712 102.2184 144.6070 0067747 320.9773 144.5420 12.39438648183768
Epoch: 2025-01-17T17:26Z
Definitive object data (Epoch: 2025-01-17T17:26:15.096Z)
Latitude70.06658°
Longitude-17.88554°
Altitude1,564.569 km
Speed7.072 km/s
True Right ascension00h 04m 15s
True Declination69° 58' 02"
Sunlit
Object was in daylight at TLE epoch
Visualization TLE readout
Latitude13.70705°
Longitude123.91841°
Altitude1,480.205 km
Speed7.138 km/s
Apparent Right ascension10h 47m 46s
Apparent Declination-10° 58' 58"
Sunlit
Object is in full shadow
Visualization observer readout
Local Sidereal Time00:50:16
Azimuth51.63° ENE
Elevation-50.369°
Doppler factor1
Orbital elements
Apogee altitude1,559.989 km
Perigee altitude1,453.156 km
Semi-major axis7,884.709 km
Eccentricity0.0067747
Inclination102.2184°
RAAN144.607°
Arg. of periapsis320.9773°
True anomaly144.98926°
Mean anomaly144.542°
Eccentric anomaly144.76594°
Mean motion3.10002 °/min
BSTAR0.011197
Orbital period116.13 mins
Loading maneuver chart data...
Loading historical data...
Loading historical data...
Loading historical data...
Loading historical data...
Loading historical data...
Loading historical data...
Loading historical data...

DELTA 1 DEB Visibility forecast

Observer location: undefined°, undefined

Span
Click to sort rows by Start time (UTC) header in descending order
Start Az.
Max El. time (UTC)
Max El. Az.
Max El.
End time (UTC)
End Az.
9 mins2025-01-19 05:53:11.209Z81.235° E2025-01-19 05:58:11.209Z43.255° NE16.693°2025-01-19 06:02:11.209Z13.911° NNE
15 mins2025-01-19 07:43:11.209Z148.984° SSE2025-01-19 07:50:11.209Z66.114° ENE43.779°2025-01-19 07:58:11.209Z346.14° N
11 mins2025-01-19 09:40:11.209Z226.033° WSW2025-01-19 09:45:11.209Z269.967° W21.948°2025-01-19 09:51:11.209Z315.735° NNW
13 mins2025-01-19 19:54:11.209Z45.709° ENE2025-01-19 20:00:11.209Z94.654° ESE24.55°2025-01-19 20:07:11.209Z149.204° SSE
16 mins2025-01-19 21:47:11.209Z11.956° NNE2025-01-19 21:55:11.209Z274.185° WNW42.777°2025-01-19 22:03:11.209Z212.878° SW
8 mins2025-01-19 23:43:11.209Z341.994° N2025-01-19 23:47:11.209Z312.358° NW16.156°2025-01-19 23:51:11.209Z283.224° WNW
|